Hourly Data Report for October 28, 2015

All times are specified in Local Standard Time (LST). Add 1 hour to adjust for Daylight Saving Time where and when it is observed.

OTTAWA INTL A
ONTARIO

45°19'00.000" N
75°40'00.000" W
114.90 m
6106001
71628
YOW

Download Data

Hourly Data (October 2015)
Hourly Data Report for October 28, 2015
Temp Definition
°C
Dew Point Temp Definition
°C
Rel Hum Definition
%
Wind Dir Definition
10's deg

Wind Spd Definition
km/h
Visibility Definition
km
Stn Press Definition
kPa
Hmdx Definition


Wind Chill Definition


Weather Definition


TIME
00:00 Legend Double Dagger 1.4 -2.0 78 10 12 24.1 101.74     LegendNANA
01:00 Legend Double Dagger 1.6 -1.8 78 7 14 24.1 101.70     Cloudy
02:00 Legend Double Dagger 1.0 -1.7 82 7 14 24.1 101.65     LegendNANA
03:00 Legend Double Dagger 0.9 -1.7 83 7 15 24.1 101.55     LegendNANA
04:00 Legend Double Dagger 0.9 -1.2 86 7 19 24.1 101.41     Cloudy
05:00 Legend Double Dagger 1.2 -1.0 85 8 18 24.1 101.32     LegendNANA
06:00 Legend Double Dagger 2.1 -1.2 79 8 21 24.1 101.24     LegendNANA
07:00 Legend Double Dagger 2.5 -0.8 79 8 22 24.1 101.12     Cloudy
08:00 Legend Double Dagger 3.1 -0.5 77 8 23 24.1 101.03     LegendNANA
09:00 Legend Double Dagger 3.9 -0.3 74 8 23 24.1 100.95     LegendNANA
10:00 Legend Double Dagger 4.0 -0.6 72 8 18 24.1 100.86     Cloudy
11:00 Legend Double Dagger 3.1 1.3 88 7 21 9.7 100.70     Rain,Fog
12:00 Legend Double Dagger 3.9 2.6 91 8 25 6.4 100.51     Rain,Fog
13:00 Legend Double Dagger 4.3 3.4 94 8 32 6.4 100.22     Rain,Fog
14:00 Legend Double Dagger 4.8 4.2 96 8 27 6.4 99.99     Rain,Fog
15:00 Legend Double Dagger 5.7 5.1 96 8 30 6.4 99.79     Rain,Fog
16:00 Legend Double Dagger 5.8 5.2 96 9 30 4.8 99.65     Rain,Fog
17:00 Legend Double Dagger 5.7 5.1 96 8 31 4.8 99.49     Rain,Fog
18:00 Legend Double Dagger 5.9 5.3 96 7 30 6.4 99.35     Rain,Fog
19:00 Legend Double Dagger 6.2 5.8 97 7 21 8.1 99.16     Rain,Fog
20:00 Legend Double Dagger 6.7 6.3 97 8 22 6.4 99.01     Rain,Fog
21:00 Legend Double Dagger 7.3 6.9 97 7 31 12.9 98.84     Rain
22:00 Legend Double Dagger 7.8 7.4 97 8 24 8.1 98.67     Rain,Fog
23:00 Legend Double Dagger 7.9 7.5 97 6 21 6.4 98.51     Rain,Fog

Notes on Data Quality.

Legend

  • E = Estimated
  • M = Missing
  • NA = Not Available
  • ‡ = Partner data that is not subject to review by the National Climate Archives
Date modified: